RYR76DD EGNM-LROP

Flight info

Callsign RYR76DD
Flight time N/A
Altitude 39000
Route LAMIX L603 LAMSO DCT OSTRA DCT OMELO DCT OMIFU DCT ROMIS DCT KREMI DCT DEMOP DCT WITRI DCT NARKA DCT DENAK
Aircraft B38M/M-SDE1FGHILORVWXY/HB1

Departure

Time 2026-05-04 17:23
Airport Leeds Bradford Airport (EGNM)

Arrival

Time N/A
Airport Bucharest Henri Coandă International Airport (LROP)
Time Latitude Longitude Altitude Speed Heading
2026-05-04 16:43 53.86876 -1.65548 668 ft 0 kts
2026-05-04 17:08 53.86861 -1.65548 667 ft 4 kts 350°
2026-05-04 17:08 53.86837 -1.65532 666 ft 4 kts 320°
2026-05-04 17:09 53.86821 -1.65498 666 ft 4 kts 294°
2026-05-04 17:09 53.86814 -1.65454 665 ft 4 kts 277°
2026-05-04 17:09 53.86812 -1.65420 665 ft 0 kts 270°
2026-05-04 17:15 53.86812 -1.65437 665 ft 8 kts 270°
2026-05-04 17:15 53.86812 -1.65853 668 ft 25 kts 270°
2026-05-04 17:16 53.86888 -1.66196 669 ft 8 kts 317°
2026-05-04 17:16 53.86977 -1.66530 675 ft 24 kts 236°
2026-05-04 17:17 53.87054 -1.66772 681 ft 30 kts 319°
2026-05-04 17:17 53.87400 -1.67060 691 ft 18 kts 280°
2026-05-04 17:18 53.87331 -1.67182 692 ft 14 kts 166°
2026-05-04 17:18 53.87290 -1.67132 691 ft 0 kts 138°
2026-05-04 17:19 53.87289 -1.67130 691 ft 0 kts 138°
2026-05-04 17:20 53.87288 -1.67129 691 ft 0 kts 138°
2026-05-04 17:20 53.87287 -1.67128 691 ft 0 kts 139°
2026-05-04 17:23 53.87160 -1.66931 685 ft 66 kts 138°
2026-05-04 17:23 53.86629 -1.66115 669 ft 142 kts 138°
2026-05-04 17:23 53.84818 -1.63436 1560 ft 195 kts 143°
2026-05-04 17:24 53.83774 -1.61866 2256 ft 211 kts 139°
2026-05-04 17:24 53.80412 -1.55795 4646 ft 256 kts 135°
2026-05-04 17:25 53.79117 -1.53651 5562 ft 265 kts 135°
2026-05-04 17:25 53.76326 -1.49231 6911 ft 294 kts 139°
2026-05-04 17:26 53.73060 -1.44323 7548 ft 333 kts 139°
2026-05-04 17:26 53.68129 -1.36881 8866 ft 378 kts 139°
2026-05-04 17:27 53.64161 -1.30905 10404 ft 388 kts 139°
2026-05-04 17:27 53.60196 -1.24949 11814 ft 395 kts 139°
2026-05-04 17:28 53.56058 -1.18749 13182 ft 402 kts 139°
2026-05-04 17:29 53.49702 -1.09259 15023 ft 412 kts 139°
2026-05-04 17:29 53.43204 -0.99598 16702 ft 422 kts 140°
2026-05-04 17:30 53.37215 -0.88815 18355 ft 432 kts 117°
2026-05-04 17:31 53.34441 -0.79791 19239 ft 438 kts 118°
2026-05-04 17:31 53.30320 -0.65924 20588 ft 445 kts 107°
2026-05-04 17:32 53.28502 -0.56001 21486 ft 449 kts 108°
2026-05-04 17:33 53.25667 -0.40999 22805 ft 454 kts 108°
2026-05-04 17:33 53.24726 -0.36050 23225 ft 457 kts 108°
2026-05-04 17:34 53.21777 -0.20626 24185 ft 467 kts 108°
2026-05-04 17:34 53.20785 -0.15464 24554 ft 467 kts 108°
2026-05-04 17:35 53.17780 0.00082 25618 ft 472 kts 109°
2026-05-04 17:35 53.15740 0.10563 26149 ft 479 kts 109°
2026-05-04 17:35 53.14708 0.15847 26484 ft 480 kts 108°
2026-05-04 17:36 53.13672 0.21131 26858 ft 479 kts 108°
2026-05-04 17:36 53.12651 0.26331 27286 ft 478 kts 108°
2026-05-04 17:36 53.11605 0.31641 27725 ft 476 kts 108°
2026-05-04 17:36 53.10572 0.36870 28177 ft 474 kts 108°
2026-05-04 17:37 53.09563 0.41965 28620 ft 471 kts 108°
2026-05-04 17:37 53.08523 0.47200 29081 ft 469 kts 108°
2026-05-04 17:37 53.07518 0.52248 29498 ft 468 kts 109°
2026-05-04 17:37 53.06488 0.57403 29700 ft 472 kts 109°
2026-05-04 17:38 53.05437 0.62658 30029 ft 472 kts 109°
2026-05-04 17:38 53.04413 0.67759 30364 ft 471 kts 109°
2026-05-04 17:38 53.03373 0.72924 30688 ft 470 kts 109°
2026-05-04 17:38 53.02321 0.78138 31004 ft 470 kts 109°
2026-05-04 17:39 53.00249 0.88373 31642 ft 467 kts 109°
2026-05-04 17:39 52.99208 0.93491 31852 ft 470 kts 110°
2026-05-04 17:39 52.98176 0.98563 32095 ft 470 kts 109°
2026-05-04 17:40 52.97418 1.03843 32371 ft 471 kts 101°
2026-05-04 17:40 52.96826 1.09202 32611 ft 472 kts 102°
2026-05-04 17:40 52.96207 1.14560 32880 ft 472 kts 102°
2026-05-04 17:40 52.95590 1.19887 33232 ft 469 kts 102°
2026-05-04 17:41 52.94977 1.25161 33730 ft 465 kts 102°
2026-05-04 17:41 52.94361 1.30437 33876 ft 467 kts 102°
2026-05-04 17:41 52.93741 1.35724 34078 ft 468 kts 102°
2026-05-04 17:41 52.93116 1.41030 34228 ft 470 kts 102°
2026-05-04 17:42 52.92487 1.46348 34359 ft 471 kts 102°
2026-05-04 17:42 52.91852 1.51700 34485 ft 472 kts 102°
2026-05-04 17:42 52.90575 1.62388 34641 ft 477 kts 102°
2026-05-04 17:43 52.89929 1.67772 34755 ft 478 kts 103°
2026-05-04 17:43 52.89271 1.73223 34854 ft 479 kts 103°
2026-05-04 17:43 52.88615 1.78642 34965 ft 480 kts 103°
2026-05-04 17:43 52.87961 1.84015 35351 ft 472 kts 103°
2026-05-04 17:44 52.87332 1.89262 36245 ft 453 kts 102°
2026-05-04 17:44 52.86762 1.94233 37374 ft 429 kts 102°
2026-05-04 17:44 52.86254 1.98989 38332 ft 410 kts 101°
2026-05-04 17:44 52.85809 2.03560 38738 ft 402 kts 101°
2026-05-04 17:45 52.85407 2.08166 38585 ft 408 kts 99°
2026-05-04 17:45 52.85042 2.12901 38003 ft 424 kts 98°
2026-05-04 17:45 52.84715 2.17783 37269 ft 438 kts 97°
2026-05-04 17:45 52.84427 2.22937 36501 ft 450 kts 96°
2026-05-04 17:46 52.84199 2.28145 35851 ft 461 kts 95°
2026-05-04 17:46 52.84034 2.33480 35470 ft 469 kts 94°
2026-05-04 17:46 52.83941 2.44251 35857 ft 466 kts 90°
2026-05-04 17:47 52.84031 2.49515 36623 ft 451 kts 89°
2026-05-04 17:47 52.84219 2.54594 37495 ft 434 kts 87°
2026-05-04 17:47 52.84498 2.59489 38159 ft 422 kts 85°
2026-05-04 17:47 52.84867 2.64267 38404 ft 419 kts 83°
2026-05-04 17:48 52.85333 2.69077 38191 ft 427 kts 81°
2026-05-04 17:48 52.85900 2.73985 37536 ft 444 kts 79°
2026-05-04 17:48 52.86343 2.77392 36898 ft 453 kts 78°
2026-05-04 17:48 52.87345 2.84203 35469 ft 466 kts 76°
2026-05-04 17:49 52.88213 2.89403 34428 ft 474 kts 75°
2026-05-04 17:49 52.89180 2.94673 33461 ft 480 kts 73°
2026-05-04 17:49 52.90233 2.99909 32733 ft 479 kts 72°
2026-05-04 17:49 52.91368 3.05077 32309 ft 472 kts 71°
2026-05-04 17:50 52.92581 3.10125 32154 ft 474 kts 69°
2026-05-04 17:50 52.93897 3.15151 32296 ft 474 kts 67°
2026-05-04 17:50 52.95299 3.20080 32751 ft 470 kts 65°
2026-05-04 17:50 52.96772 3.24857 33445 ft 461 kts 62°
2026-05-04 17:51 52.98299 3.29486 34209 ft 449 kts 60°
2026-05-04 17:51 52.99844 3.33906 34815 ft 438 kts 59°
2026-05-04 17:51 53.01432 3.38187 35233 ft 433 kts 58°
2026-05-04 17:51 53.03073 3.42370 35404 ft 434 kts 56°
2026-05-04 17:52 53.06628 3.50714 35123 ft 452 kts 53°
2026-05-04 17:52 53.08561 3.54918 34879 ft 464 kts 52°
2026-05-04 17:52 53.10604 3.59145 34719 ft 474 kts 50°
2026-05-04 17:53 53.14986 3.67517 34841 ft 481 kts 47°
2026-05-04 17:53 53.17281 3.71558 35159 ft 478 kts 45°
2026-05-04 17:53 53.19623 3.75460 35580 ft 473 kts 43°
2026-05-04 17:54 53.21992 3.79199 36074 ft 466 kts 41°
2026-05-04 17:54 53.24386 3.82775 36493 ft 460 kts 40°
2026-05-04 17:54 53.26824 3.86216 36779 ft 457 kts 38°
2026-05-04 17:54 53.29309 3.89521 36892 ft 459 kts 37°
2026-05-04 17:55 53.34531 3.95868 36704 ft 471 kts 33°
2026-05-04 17:55 53.37281 3.98929 36571 ft 478 kts 31°
2026-05-04 17:55 53.40110 4.01904 36506 ft 483 kts 30°
2026-05-04 17:56 53.45958 4.07542 36725 ft 484 kts 27°
2026-05-04 17:56 53.48926 4.10159 36992 ft 481 kts 25°
2026-05-04 17:56 53.51906 4.12634 37297 ft 478 kts 24°
2026-05-04 17:57 53.54914 4.14980 37585 ft 475 kts 22°
2026-05-04 17:57 53.57933 4.17188 37785 ft 473 kts 21°
2026-05-04 17:57 53.60987 4.19275 37909 ft 474 kts 19°
2026-05-04 17:57 53.64071 4.21238 37932 ft 476 kts 18°
2026-05-04 17:58 53.70403 4.24842 37855 ft 483 kts 15°
2026-05-04 17:58 53.76852 4.27964 37844 ft 480 kts 12°
2026-05-04 17:59 53.83242 4.30329 37633 ft 457 kts
2026-05-04 17:59 53.88447 4.30693 37142 ft 442 kts